This demonstration page uses our WeatherBlox Daily Observations layout. Learn more.

Left ArrowRight Arrow

39.92423, -83.80882

Hourly Observations for May 17, 2018

Temp ( °F °C ) Dew Point ( °F °C ) Humidity (%) Winds ( mph kmh ) Pressure ( in mb ) Visibility ( mi km ) Precip ( " mm )
12:10 am 00:10 Cloudy 66 19 63 17 88 88 NE 7 11 29.94 1014 10 16.0934 0 0
12:56 am 00:56 Cloudy 66 18.9 58 14.4 75 75 NNE 8 13 29.96 1015 10 16.0934 0 0
1:56 am 01:56 Cloudy 64 17.8 58 14.4 81 81 NE 8 13 29.95 1014 10 16.0934 0 0
2:56 am 02:56 Clear 61 16.1 56 13.3 84 84 ENE 6 9 29.94 1014 10 16.0934 0 0
3:56 am 03:56 Clear 62 16.7 56 13.3 80 80 NNE 5 7 29.94 1014 10 16.0934 0 0
4:56 am 04:56 Clear 60 15.6 57 13.9 90 90 N 3 6 29.95 1014 10 16.0934 0 0
5:56 am 05:56 Clear 58 14.4 55 12.8 90 90 N 3 6 29.95 1014 10 16.0934 0 0
6:56 am 06:56 Cloudy 60 15.6 55 12.8 84 84 N 3 6 29.97 1015 10 16.0934 0 0
7:56 am 07:56 Sunny 63 17.2 56 13.3 78 78 NE 6 9 29.98 1015 10 16.0934 0 0
8:56 am 08:56 Sunny 67 19.4 56 13.3 68 68 NE 9 15 29.98 1015 10 16.0934 0 0
9:56 am 09:56 Sunny 72 22.2 60 15.6 66 66 ENE 9 15 29.99 1016 10 16.0934 0 0
10:56 am 10:56 Partly Cloudy 75 23.9 64 17.8 69 69 ENE 12 19 29.99 1016 10 16.0934 0 0
11:05 am 11:05 Mostly Cloudy 73 23 63 17 69 69 E 15 24 29.97 1015 10 16.0934 0 0
11:32 am 11:32 Mostly Cloudy 73 23 63 17 69 69 E 14 22 29.97 1015 10 16.0934 0 0
11:56 am 11:56 Cloudy 75 23.9 63 17.2 66 66 ENE 13 20 30 1016 10 16.0934 0 0
12:56 pm 12:56 Cloudy 76 24.4 64 17.8 67 67 NE 12 19 29.99 1016 10 16.0934 0 0
1:56 pm 13:56 Mostly Cloudy 78 25.6 64 17.8 62 62 ENE 9 15 29.98 1015 10 16.0934 0 0
2:56 pm 14:56 Cloudy 77 25 63 17.2 62 62 NNE 9 15 29.97 1015 10 16.0934 0 0
3:56 pm 15:56 Partly Cloudy 80 26.7 63 17.2 56 56 ENE 15 24 29.95 1014 10 16.0934 0 0
4:56 pm 16:56 Cloudy 79 26.1 63 17.2 58 58 NE 13 20 29.93 1014 10 16.0934 0 0
5:56 pm 17:56 Cloudy with Heavy Rain 68 20 65 18.3 90 90 ESE 20 31 29.96 1014 6 9.65604 0.01 0.254
6:56 pm 18:56 Cloudy with Light Rain 69 20.6 65 18.3 87 87 undefined N/A 29.97 1015 10 16.0934 0.09 2.286
7:56 pm 19:56 Cloudy 69 20.6 66 18.9 90 90 ENE 3 6 29.98 1015 10 16.0934 0 0.0254
8:56 pm 20:56 Mostly Cloudy with Light Rain 69 20.6 66 18.9 90 90 ENE 6 9 29.98 1015 10 16.0934 0 0.0254
9:56 pm 21:56 Mostly Cloudy 69 20.6 66 18.9 90 90 NE 10 17 30 1016 10 16.0934 0 0.0254
10:56 pm 22:56 Mostly Cloudy 68 20 60 15.6 76 76 NE 12 19 30.01 1016 10 16.0934 0 0
11:56 pm 23:56 Cloudy with Light Rain 65 18.3 58 14.4 78 78 NE 12 19 30.01 1016 10 16.0934 0 0.0254

Powered by AerisWeather